Station NWPR1 - 8452660 - Newport, RI Image indicating link to RSS feed of recent meteorological observations for station NWPR1


Conditions at NWPR1 as of
(7:18 am EDT)
1118 GMT on 07/16/2024:
     

Click on the graph icon in the table below to see a time series plot of the last five days of that observation.

5-day plot - Wind Direction Wind Direction (WDIR): SW ( 220 deg true )
5-day plot - Wind Speed Wind Speed (WSPD): 4.1 kts
5-day plot - Wind Gust Wind Gust (GST): 5.1 kts
5-day plot - Atmospheric Pressure Atmospheric Pressure (PRES):29.82 in
5-day plot - Air Temperature Air Temperature (ATMP): 74.1 °F
5-day plot - Water Temperature Water Temperature (WTMP): 73.6 °F
5-day plot - Wind Speed at 10 Meters Wind Speed at 10 meters (WSPD10M): 3.9 kts
5-day plot - Wind Speed at 20 Meters Wind Speed at 20 meters (WSPD20M): 3.9 kts
5-day plot -  Wind Speed, Wind Gust and Atmospheric Pressure Combined plot of Wind Speed, Gust, and Air Pressure
NOS Water Level Observation Network Water Level
Previous observations
TIME
(EDT)
5-day plot - Wind Direction
WDIR
 
5-day plot - Wind Speed
WSPD
kts
5-day plot - Wind Gust
GST
kts
5-day plot - Wave Height
WVHT
ft
5-day plot - Dominant Wave Period
DPD
sec
5-day plot - Average Wave Period
APD
sec
5-day plot - Mean Wave Direction
MWD
 
5-day plot - Atmospheric Pressure
PRES
in
5-day plot - Pressure Tendency
PTDY
in
5-day plot - Air Temperature
ATMP
°F
5-day plot - Water Temperature
WTMP
°F
5-day plot - Dew Point
DEWP
°F
5-day plot - Salinity
SAL
psu
5-day plot - Visibility
VIS
nmi
5-day plot - Tide (above MLLW)
TIDE
ft
2024-07-16 07:12 amSSW 5.1 6.0----29.81- 74.1 74.1----
2024-07-16 07:06 amSSW 5.1 6.0----29.81- 74.3 74.7----
2024-07-16 07:00 am S 5.1 6.0----29.81+0.04 74.5 74.8----
2024-07-16 06:54 am S 2.9 4.1----29.81- 74.1 74.8----
2024-07-16 06:48 am S 2.9 4.1----29.81- 73.6 75.0----
2024-07-16 06:42 amSSE 4.1 5.1----29.81- 72.9 75.0----
2024-07-16 06:36 amSSE 4.1 4.1----29.81- 73.2 75.2----
2024-07-16 06:30 am- 0.0 1.0----29.81- 73.2 75.2----
2024-07-16 06:24 am W 1.0 4.1----29.81- 72.9 75.2----
2024-07-16 06:18 amWSW 2.9 4.1----29.81- 72.3 75.2----
2024-07-16 06:12 am SW 2.9 4.1----29.81- 72.1 75.2----
2024-07-16 06:06 am SW 4.1 5.1----29.80- 72.1 75.2----
2024-07-16 06:00 am SW 4.1 5.1----29.80+0.02 72.3 75.2----
2024-07-16 05:54 amSSW 4.1 5.1----29.79- 72.7 75.2----
2024-07-16 05:48 amSSW 2.9 5.1----29.79-- 75.2----
2024-07-16 05:42 amSSW 5.1 6.0----29.79-- 75.4----
2024-07-16 05:36 am S 5.1 6.0----29.78-- 75.4----
2024-07-16 05:30 am S 5.1 5.1----29.78- 72.3 75.4----
2024-07-16 05:24 am S 4.1 5.1----29.79- 72.3 75.4----
2024-07-16 05:18 am S 4.1 4.1----29.79- 72.1 75.4----
2024-07-16 05:12 amSSW 4.1 5.1----29.80- 71.8 75.4----
2024-07-16 05:06 amSSW 4.1 5.1----29.80- 71.8 75.4----
2024-07-16 05:00 amSSW 4.1 6.0----29.79+0.00 71.8 75.4----
2024-07-16 04:54 am S 5.1 8.0----29.79- 71.6 75.4----
2024-07-16 04:48 am S 7.0 8.0----29.78- 72.0 75.4----
2024-07-16 04:42 amSSW 6.0 7.0----29.79- 71.8 75.4----
2024-07-16 04:36 amSSW 6.0 7.0----29.79- 72.0 75.2----
2024-07-16 04:30 am SW 5.1 7.0----29.79- 72.3 75.2----
2024-07-16 04:24 amSSW 6.0 8.0----29.78- 72.5 75.2----
2024-07-16 04:18 am S 6.0 8.9----29.78- 72.7 75.2----
2024-07-16 04:12 am S 7.0 8.0----29.77- 72.9 75.4----
2024-07-16 04:06 am S 6.0 8.0----29.77- 73.0 75.2----
2024-07-16 04:00 am S 6.0 7.0----29.77-0.02 73.4 75.2----
2024-07-16 03:54 am S 5.1 7.0----29.77- 73.4 75.2----
2024-07-16 03:48 am S 6.0 7.0----29.77-- 75.2----
2024-07-16 03:24 am S 5.1 6.0----29.77- 73.4 75.4----
2024-07-16 03:18 am S 5.1 7.0----29.77- 73.4 75.6----
2024-07-16 03:12 amSSW 6.0 7.0----29.78- 73.4 75.6----
2024-07-16 03:06 am S 5.1 6.0----29.78- 73.6 75.6----
2024-07-16 03:00 am S 5.1 6.0----29.78-0.03 73.6 75.6----
2024-07-16 02:54 am S 6.0 7.0----29.78- 73.4 75.6----
2024-07-16 02:48 am S 6.0 7.0----29.78- 73.6 75.7----
2024-07-16 02:42 am S 6.0 7.0----29.78- 73.4 75.7----
2024-07-16 02:36 am S 5.1 7.0----29.78- 72.9 75.7----
2024-07-16 02:30 amSSW 6.0 8.0----29.79- 72.9 75.7----
2024-07-16 02:24 amSSW 6.0 8.0----29.79- 73.0 75.9----
2024-07-16 02:18 am SW 7.0 8.9----29.79- 73.0 75.9----
2024-07-16 02:12 amSSW 7.0 8.9----29.79- 73.2 75.9----
2024-07-16 02:06 amSSW 7.0 11.1----29.78- 73.2 75.9----
2024-07-16 02:00 amSSW 8.9 11.1----29.79-0.02 73.0 75.9----
2024-07-16 01:54 amSSW 8.0 9.9----29.79- 72.7 75.9----
2024-07-16 01:48 am SW 8.9 13.0----29.79-- 76.1----
2024-07-16 01:42 am SW 11.1 14.0----29.79-- 76.1----
2024-07-16 01:36 amSSW 12.0 14.0----29.78-- 76.1----
2024-07-16 01:30 amSSW 9.9 13.0----29.78- 73.8 76.3----
2024-07-16 01:24 amSSW 11.1 13.0----29.78- 73.9 76.3----
2024-07-16 01:18 amSSW 11.1 13.0----29.78- 73.9 76.3----
2024-07-16 01:12 amSSW 11.1 14.0----29.78- 73.9 76.3----
2024-07-16 01:06 amSSW 9.9 13.0----29.79- 73.9 76.5----
2024-07-16 01:00 amSSW 11.1 13.0----29.79-0.04 74.1 76.5----
2024-07-16 12:54 amSSW 11.1 13.0----29.79- 74.3 76.5----
2024-07-16 12:48 amSSW 11.1 13.0----29.79- 74.3 76.6----
2024-07-16 12:42 amSSW 12.0 14.0----29.80- 74.1 76.6----
2024-07-16 12:36 amSSW 9.9 12.0----29.80- 74.1 76.6----
2024-07-16 12:30 amSSW 9.9 12.0----29.80- 74.3 76.6----
2024-07-16 12:24 amSSW 11.1 14.0----29.80- 74.5 76.6----
2024-07-16 12:18 amSSW 11.1 13.0----29.79- 74.3 76.6----
2024-07-16 12:12 amSSW 12.0 14.0----29.80- 74.5 76.6----
2024-07-16 12:06 amSSW 9.9 13.0----29.80- 74.3 76.6----
2024-07-16 12:00 amSSW 11.1 12.0----29.80-0.02 74.3 76.6----
2024-07-15 11:54 pm SW 8.0 11.1----29.80- 74.1 76.6----
2024-07-15 11:48 pm SW 9.9 12.0----29.80-- 76.6----
2024-07-15 11:42 pm SW 9.9 13.0----29.80-- 76.6----
2024-07-15 11:36 pmSSW 11.1 13.0----29.80-- 76.6----
2024-07-15 11:30 pmSSW 11.1 13.0----29.80- 74.5 76.8----
2024-07-15 11:24 pmSSW 9.9 13.0----29.80- 74.3 76.8----
2024-07-15 11:18 pmSSW 11.1 13.0----29.80- 74.3 76.8----
2024-07-15 11:12 pmSSW 12.0 13.0----29.81- 74.3 76.8----
2024-07-15 11:06 pmSSW 9.9 12.0----29.81- 74.1 76.8----
2024-07-15 11:00 pmSSW 8.9 11.1----29.81+0.00 74.1 76.8----
2024-07-15 10:54 pmSSW 8.9 12.0----29.81- 74.3 76.8----
2024-07-15 10:48 pmSSW 9.9 11.1----29.81- 74.3 76.8----
2024-07-15 10:42 pmSSW 8.9 9.9----29.82- 73.9 76.8----
2024-07-15 10:36 pmSSW 8.9 9.9----29.82- 73.9 76.8----
2024-07-15 10:30 pm SW 8.0 9.9----29.82- 73.9 76.8----
2024-07-15 10:24 pmSSW 8.0 9.9----29.82- 74.1 76.8----
2024-07-15 10:18 pmSSW 8.0 11.1----29.83- 74.3 76.8----
2024-07-15 10:12 pmSSW 8.9 9.9----29.82- 74.3 76.8----
2024-07-15 10:06 pmSSW 8.0 8.9----29.83- 73.8 76.8----
2024-07-15 10:00 pmSSW 7.0 8.9----29.83+0.01 73.4 76.8----
2024-07-15 09:54 pm SW 7.0 9.9----29.83- 73.8 76.8----
2024-07-15 09:48 pm SW 7.0 8.0----29.83- 73.8 76.8----
2024-07-15 09:42 pm SW 7.0 8.9----29.83- 74.1 76.8----
2024-07-15 09:36 pmSSW 7.0 8.0----29.83- 74.3 76.8----
2024-07-15 09:30 pm SW 6.0 8.9----29.83- 73.9 76.8----
2024-07-15 09:24 pm SW 8.0 11.1----29.83- 74.3 76.8----
2024-07-15 09:18 pm SW 8.9 9.9----29.83- 74.5 76.8----
2024-07-15 09:12 pmSSW 8.0 9.9----29.83- 74.5 76.8----
2024-07-15 09:06 pmSSW 8.0 9.9----29.83- 74.5 76.8----
2024-07-15 09:00 pmSSW 8.0 9.9----29.82+0.01 74.5 76.8----
2024-07-15 08:54 pmSSW 8.0 9.9----29.82- 74.3 76.8----
2024-07-15 08:48 pmSSW 8.0 9.9----29.82- 74.1 76.8----
2024-07-15 08:42 pmSSW 8.9 11.1----29.82- 73.9 76.8----
2024-07-15 08:36 pmSSW 8.9 11.1----29.82- 73.8 76.8----
2024-07-15 08:30 pm SW 8.9 11.1----29.82- 73.9 76.8----
2024-07-15 08:24 pm SW 9.9 13.0----29.82- 74.1 76.8----
2024-07-15 08:18 pmSSW 9.9 12.0----29.82- 74.5 76.8----
2024-07-15 08:12 pmSSW 11.1 13.0----29.82- 74.5 76.8----
2024-07-15 08:06 pmSSW 9.9 14.0----29.82- 74.5 76.8----
2024-07-15 08:00 pmSSW 11.1 13.0----29.82+0.00- 76.8----
2024-07-15 07:54 pmSSW 11.1 12.0----29.82-- 76.8----
2024-07-15 07:48 pmSSW 11.1 14.0----29.81-------
2024-07-15 07:42 pmSSW 12.0 15.0----29.81-------
2024-07-15 07:36 pmSSW 13.0 15.9----29.81-------
2024-07-15 07:30 pmSSW 12.0 15.0----29.81-------
2024-07-15 07:24 pmSSW 11.1 14.0----29.81-------
2024-07-15 07:18 pmSSW 11.1 13.0----29.81- 75.4 76.8----
2024-07-15 07:12 pmSSW 12.0 15.0----29.81- 75.2 76.8----
2024-07-15 07:00 pmSSW 12.0 14.0----29.81-0.03 75.0 76.8----
2024-07-15 06:54 pmSSW 9.9 12.0----29.81- 74.5 76.8----
2024-07-15 06:48 pmSSW 9.9 12.0----29.81-- 76.8----
2024-07-15 06:42 pm SW 9.9 12.0----29.81-- 76.8----
2024-07-15 06:36 pmSSW 11.1 14.0----29.80-- 76.8----
2024-07-15 06:30 pmSSW 12.0 17.1----29.81- 76.1-----
2024-07-15 06:24 pmSSW 14.0 18.1----29.80- 76.5-----
2024-07-15 06:18 pm-------29.80- 76.5 76.6----
2024-07-15 06:12 pm-------29.81- 75.4 76.6----
2024-07-15 06:06 pm-------29.81- 76.1 76.6----
2024-07-15 06:00 pmSSW 12.0 15.0----29.81-0.04 76.1 76.5----
2024-07-15 05:54 pmSSW 12.0 17.1----29.81- 75.9 76.6----
2024-07-15 05:48 pmSSW 13.0 15.9------ 76.1 76.5----
2024-07-15 05:42 pmSSW 14.0 18.1------ 76.5 76.5----
2024-07-15 05:36 pmSSW 15.0 17.1------ 76.5 76.5----
2024-07-15 05:30 pmSSW 15.0 18.1----29.81- 76.6 76.5----
2024-07-15 05:24 pmSSW 15.9 19.0----29.81- 77.0 76.6----
2024-07-15 05:18 pmSSW 17.1 20.0----29.81- 77.2 76.5----
2024-07-15 05:12 pmSSW 15.9 19.0----29.82- 77.2 76.5----
2024-07-15 05:06 pmSSW 15.0 19.0----29.82- 76.8 76.3----
2024-07-15 05:00 pmSSW 14.0 17.1----29.82-0.05- 76.3----
2024-07-15 04:54 pmSSW 15.0 19.0----29.83-- 76.3----
2024-07-15 04:48 pmSSW 15.0 18.1----29.83- 76.8 75.9----
2024-07-15 04:42 pmSSW 15.0 19.0----29.83- 76.8 75.9----
2024-07-15 04:36 pmSSW 13.0 15.0----29.83- 76.6 75.9----
2024-07-15 04:30 pmSSW 12.0 15.0----29.84- 76.6 75.9----
2024-07-15 04:24 pmSSW 12.0 17.1----29.84- 77.0 75.7----
2024-07-15 04:18 pmSSW 13.0 19.0----29.85- 77.0 75.6----
2024-07-15 04:12 pmSSW 12.0 15.9----29.85- 76.6 75.6----
2024-07-15 04:06 pmSSW 13.0 17.1----29.84- 76.6 75.6----
2024-07-15 04:00 pmSSW 15.0 18.1----29.84-0.04 76.5 75.4----
2024-07-15 03:54 pmSSW 14.0 15.9----29.84- 76.3 75.4----
2024-07-15 03:48 pmSSW 13.0 15.9----29.84-- 75.4----
2024-07-15 03:42 pmSSW 14.0 15.9----29.85-- 75.4----
2024-07-15 03:36 pmSSW 13.0 18.1----29.85-- 75.4----
2024-07-15 03:30 pmSSW 15.9 20.0----29.85- 76.5 75.4----
2024-07-15 03:24 pmSSW 15.9 18.1----29.85- 76.3 75.4----
2024-07-15 03:18 pmSSW 15.0 17.1----29.85- 76.6 75.4----
2024-07-15 03:12 pmSSW 14.0 17.1----29.85- 76.6 75.4----
2024-07-15 03:06 pmSSW 14.0 15.9----29.85- 76.6 75.4----
2024-07-15 03:00 pmSSW 13.0 15.9----29.86-0.04 77.2 75.4----
2024-07-15 02:54 pmSSW 12.0 14.0----29.86- 77.2 75.4----
2024-07-15 02:48 pmSSW 13.0 14.0----29.86- 77.4 75.4----
2024-07-15 02:42 pmSSW 12.0 14.0----29.86- 77.5 75.4----
2024-07-15 02:36 pmSSW 12.0 15.0----29.86- 78.4 75.4----
2024-07-15 02:30 pmSSW 12.0 14.0----29.86- 77.9 75.4----
2024-07-15 02:24 pmSSW 11.1 14.0----29.86- 77.0 75.4----
2024-07-15 02:18 pmSSW 13.0 14.0----29.86- 77.2 75.4----
2024-07-15 02:12 pmSSW 12.0 14.0----29.87- 76.8 75.2----
2024-07-15 02:06 pmSSW 12.0 14.0----29.87- 76.6 75.4----
2024-07-15 02:00 pmSSW 11.1 13.0----29.87-0.03 76.8 75.4----
2024-07-15 01:54 pmSSW 11.1 15.0----29.87- 76.6 75.4----
2024-07-15 01:48 pmSSW 12.0 15.0----29.87- 76.5 75.2----
2024-07-15 01:42 pmSSW 14.0 17.1----29.87- 75.9 75.2----
2024-07-15 01:36 pmSSW 14.0 17.1----29.88- 75.9 75.2----
2024-07-15 01:30 pmSSW 15.0 17.1----29.88- 75.9 75.2----
2024-07-15 01:24 pmSSW 12.0 14.0----29.88- 76.5 75.0----
2024-07-15 01:18 pmSSW 11.1 15.9----29.89- 76.3 75.2----
2024-07-15 01:12 pmSSW 13.0 17.1----29.89- 76.3 75.2----
2024-07-15 01:06 pmSSW 14.0 17.1----29.88- 76.5 75.0----
2024-07-15 01:00 pmSSW 15.0 18.1----29.89-0.02 76.5 75.0----
2024-07-15 12:54 pmSSW 17.1 19.0----29.89- 76.8 75.0----
2024-07-15 12:48 pmSSW 15.0 18.1----29.89- 76.8 75.0----
2024-07-15 12:42 pmSSW 15.9 20.0----29.89- 76.5 75.0----
2024-07-15 12:36 pmSSW 17.1 19.0----29.90- 76.3 75.0----
2024-07-15 12:30 pmSSW 15.0 19.0----29.90- 76.3 75.0----
2024-07-15 12:24 pmSSW 17.1 20.0----29.89- 76.5 75.0----
2024-07-15 12:18 pmSSW 17.1 20.0----29.89- 76.6 75.0----
2024-07-15 12:12 pmSSW 14.0 15.0----29.89- 76.8 75.0----
2024-07-15 12:06 pm S 12.0 15.0----29.89- 77.2 74.8----
2024-07-15 12:00 pm S 13.0 15.0----29.89-0.03 77.2 74.8----
2024-07-15 11:54 am S 12.0 13.0----29.89- 77.4 74.8----
2024-07-15 11:48 am S 12.0 14.0----29.89- 77.0 74.8----
2024-07-15 11:42 am S 11.1 12.0----29.89- 77.5 74.8----
2024-07-15 11:36 am S 11.1 12.0----29.89- 77.7 74.8----
2024-07-15 11:30 am S 8.9 9.9----29.89- 77.9 74.7----
2024-07-15 11:24 am S 8.0 8.9----29.89- 77.7 74.7----
2024-07-15 11:18 am S 6.0 9.9----29.89- 78.6 74.7----
2024-07-15 11:12 am S 8.0 12.0----29.89- 77.9 74.7----
2024-07-15 11:06 am S 7.0 8.0----29.90- 78.3 74.7----
2024-07-15 11:00 am S 5.1 8.0----29.90-0.03 78.3 74.7----
2024-07-15 10:54 am S 8.0 8.0----29.90- 78.3 74.7----
2024-07-15 10:48 am S 6.0 8.0----29.90- 78.3 74.7----
2024-07-15 10:42 am S 6.0 8.0----29.91- 77.9 74.5----
2024-07-15 10:36 am S 5.1 9.9----29.90- 78.1 74.5----
2024-07-15 10:30 am S 8.0 8.9----29.91- 77.9 74.5----
2024-07-15 10:24 am S 7.0 8.0----29.90- 77.4 74.5----
2024-07-15 10:18 am S 7.0 7.0----29.91- 77.0 74.5----
2024-07-15 10:12 am S 6.0 8.0----29.91- 77.0 74.3----
2024-07-15 10:06 am S 6.0 7.0----29.91- 76.5 74.3----
2024-07-15 10:00 am S 5.1 7.0----29.91+0.00 75.6 74.3----
2024-07-15 09:54 am S 6.0 8.0----29.91- 75.2 74.3----
2024-07-15 09:48 am S 6.0 8.9----29.91- 75.2 74.3----
2024-07-15 09:42 am S 7.0 8.9----29.91- 74.8 74.3----
2024-07-15 09:36 amSSW 8.0 9.9----29.91- 74.8 74.5----
2024-07-15 09:30 amSSW 8.9 11.1----29.91- 74.7 74.5----
2024-07-15 09:24 amSSW 9.9 11.1----29.92- 74.7 74.5----
2024-07-15 09:18 amSSW 9.9 11.1----29.92- 74.5 74.5----
2024-07-15 09:12 amSSW 8.9 9.9----29.92- 74.8 74.5----
2024-07-15 09:06 amSSW 8.9 11.1----29.92- 74.3 74.5----
2024-07-15 09:00 amSSW 8.9 11.1----29.92+0.01 74.3 74.5----
2024-07-15 08:54 am S 8.0 12.0----29.92- 74.3 74.5----
2024-07-15 08:48 am S 11.1 12.0----29.92- 74.3 74.5----
2024-07-15 08:42 am S 8.0 9.9----29.92- 75.0 74.5----
2024-07-15 08:36 am S 8.9 9.9----29.93- 75.2 74.5----
2024-07-15 08:30 am S 8.0 9.9----29.93- 75.2 74.5----
2024-07-15 08:24 am S 7.0 8.0----29.92- 75.4 74.5----
2024-07-15 08:18 amSSW 7.0 8.0----29.93- 74.8 74.5----
2024-07-15 08:12 amSSW 6.0 7.0----29.93- 74.5 74.7----
2024-07-15 08:06 amSSW 6.0 7.0----29.92- 74.5 74.7----
2024-07-15 08:00 am S 6.0 7.0----29.93+0.01 74.5 74.5----
2024-07-15 07:54 am S 6.0 7.0----29.92- 74.7 74.5----